Home   Weather   Lansing   Past weeks

Flag for USA Past Weather in Lansing, Michigan, USA — Yesterday and Last 2 Weeks

Now
22 °F

Light snow. Ice fog.


Feels Like: 12 °F
Forecast: 22 / 30 °F
Wind: 9 mph from South

Location: Capital City Airport

Current Time: Dec 11, 2016 at 3:14:12 am

Latest Report: Dec 11, 2016 at 2:02 am


Visibility: 1 mi

Pressure: 30.34 "Hg

Humidity: 85%

Dew Point: 18 °F

Location of LansingLocation

Past Weather in Lansing — Graph

°F

Lansing Temperature Yesterday

Maximum temperature yesterday: 25 °F (at 12:53 pm)
Minimum temperature yesterday: 20 °F (at 5:53 am)
Average temperature yesterday: 23 °F

High & Low Weather Summary for the Past Weeks

 TemperatureHumidityPressure
High58 °F (Nov 29, 2:53 pm)96% (Dec 4, 10:53 pm)30.47 "Hg (Dec 4, 10:53 pm)
Low20 °F (Dec 10, 5:53 am)47% (Nov 29, 2:53 pm)29.27 "Hg (Nov 28, 11:53 pm)
Average36 °F76%30.01 "Hg
* Reported Nov 26 1:53 am — Dec 11 1:53 am, Lansing, Weather by CustomWeather, © 2016

Note: Actual official high and low records may vary slightly from our data, if they occured in-between our weather recording intervals... More about our weather records

Advertising

Lansing Weather History for the Previous 24 Hours

Scroll right to see more
 ConditionsComfort  
Time TempWeatherWind HumidityBarometerVisibility
1:53 am
Sun, Dec 11
22 °FLight snow. Ice fog.8 mph85%30.38 "Hg2 mi
12:53 am22 °FLight snow. Ice fog.6 mph85%30.39 "Hg2 mi
11:53 pm
Sat, Dec 10
22 °FLight snow. Overcast.13 mph78%30.40 "Hg4 mi
10:53 pm23 °FOvercast.8 mph72%30.40 "Hg10 mi
9:53 pm23 °FOvercast.7 mph74%30.40 "Hg10 mi
8:53 pm23 °FMostly cloudy.8 mph78%30.41 "Hg9 mi
7:53 pm23 °FMostly cloudy.8 mph81%30.43 "Hg10 mi
6:53 pm23 °FMostly cloudy.7 mph78%30.43 "Hg9 mi
5:53 pm23 °FOvercast.10 mph74%30.44 "Hg9 mi
4:53 pm24 °FOvercast.8 mph75%30.43 "Hg10 mi
3:53 pm24 °FOvercast.7 mph75%30.43 "Hg8 mi
2:53 pm24 °FLight snow. More clouds than sun.10 mph77%30.43 "Hg1 mi
1:53 pm25 °FLight snow. Mostly cloudy.9 mph72%30.43 "Hg6 mi
12:53 pm25 °FMostly cloudy.13 mph69%30.45 "Hg9 mi
11:53 am24 °FLight snow. Mostly cloudy.8 mph81%30.46 "Hg1 mi
11:02 am24 °FLight snow. Mostly cloudy.13 mph77%30.43 "Hg2 mi
10:04 am23 °FLight snow. Mostly cloudy.13 mph81%30.43 "Hg2 mi
9:53 am23 °FLight snow. Cloudy.7 mph81%30.47 "Hg1 mi
9:01 am22 °FLight snow. Mostly cloudy.7 mph82%30.42 "Hg1 mi
7:53 am21 °FLight snow. Mostly cloudy.6 mph81%30.47 "Hg4 mi
6:53 am20 °FLight snow. Ice fog.10 mph85%30.47 "Hg6 mi
5:53 am20 °FPassing clouds.9 mph82%30.47 "Hg10 mi
4:53 am21 °FClear.8 mph78%30.46 "Hg10 mi
3:53 am22 °FPassing clouds.8 mph78%30.45 "Hg10 mi
Weather by CustomWeather, © 2016

See weather overviewHow to use our weather pages